Regional Weather Roundup
Issued by NWS Sioux Falls, SD

Home | Current Version | Previous Version | Text Only | Print | Product List | Glossary On
Versions: 1 2 3 4 5 6 7 8 9 10 11 12 13 14 15 16 17 18 19 20 21 22 23 24 25 26 27 28 29 30 31 32 33 34 35 36 37 38 39 40 41 42 43 44 45 46 47 48 49 50
000
ASUS43 KFSD 212202
RWRFSD

WEATHER ROUNDUP FOR SE SOUTH DAKOTA/SW MINNESOTA/NW IOWA
NATIONAL WEATHER SERVICE SIOUX FALLS SD
400 PM CST WED FEB 21 2018

NOTE: "FAIR" INDICATES FEW OR NO CLOUDS BELOW 12,000 FEET WITH NO
SIGNIFICANT WEATHER AND OR OBSTRUCTIONS TO VISIBILITY.


SDZ038>040-050-052>070-212300-
SOUTHEAST SOUTH DAKOTA

CITY           SKY/WX    TMP DP  RH WIND       PRES   REMARKS
BROOKINGS      FAIR      17   2  51 SW9       30.53F WCI   6
CHAMBERLAIN    FAIR      23   9  55 SE12      30.44F WCI  12
HURON          FAIR      18   2  49 S14       30.52F WCI   4
MADISON        FAIR      16   3  57 S8        30.52F WCI   5
MITCHELL       FAIR      19   4  51 SE12      30.54F WCI   7
SIOUX FALLS    PTSUNNY   17   2  51 S3        30.55F
WINNER         FAIR      25  10  53 S14       30.39F WCI  13
YANKTON        FAIR      18   6  59 SE10      30.56F WCI   6
$$

MNZ071-072-080-081-089-090-097-098-212300-
SOUTHWEST MINNESOTA

CITY           SKY/WX    TMP DP  RH WIND       PRES   REMARKS
FAIRMONT       FAIR      20   4  50 VRB3      30.60F
JACKSON        FAIR      18   5  57 SW5       30.58S WCI  11
LUVERNE        FAIR      18   3  53 S3        30.57F
MARSHALL       NOT AVBL
MONTEVIDEO     FAIR      25   3  39 W6        30.59S WCI  18
PIPESTONE      FAIR      12   3  67 S7        30.54F WCI   2
REDWOOD FALLS  FAIR      18   4  54 SW8       30.60S WCI   8
TRACY          FAIR      17   7  63 SW8       30.58R WCI   7
WORTHINGTON    FAIR      18   6  59 SW7       30.56F WCI   9
$$

IAZ001>003-012>014-020>022-031-032-NEZ013-014-SDZ071-212300-
NORTHWEST IOWA

CITY           SKY/WX    TMP DP  RH WIND       PRES   REMARKS
CHEROKEE       FAIR      23   9  56 CALM      30.58S
DENISON        FAIR      23  12  63 E7        30.58S WCI  15
ESTHERVILLE    FAIR      18   5  57 CALM      30.58F
LE MARS        FAIR      19   7  58 CALM      30.58F
ORANGE CITY    FAIR      18   9  68 CALM      30.57S
SHELDON        FAIR      18   5  57 SE3       30.56F
SIOUX CITY     FAIR      20   3  48 SE5       30.58F WCI  13
SPENCER        FLURRIES  22   7  52 CALM      30.57F
STORM LAKE     FAIR      19   7  58 CALM      30.56R
$$

ABBREVIATIONS USED IN REMARKS
   TC - TEMPERATURE IN CELSIUS
  WCI - WIND CHILL INDEX
   HX - HEAT INDEX
  VSB - VISIBILITY




USA.gov is the U.S. government's official web portal to all federal, state and local government web resources and services.